QPF
0.07 0.07 0.06 0.05 0.04 0.04 0.04 0.04 0.04 0.04 0.03 0.02 0.01 0.00 0.01 0.01 0.01 0.01 0.02 0.02 0.01 0.02 0.02 0.03 0.02 0.03 0.03 0.03 0.03 0.03 0.04 0.05 0.05 0.04 0.03 0.03 0.04 0.05
0.03 0.04 0.04 0.03 0.04 0.04 0.04 0.04 0.04 0.04 0.03 0.01 0.01 0.01 0.01 0.01 0.01 0.01 0.02 0.02 0.02 0.03 0.03 0.03 0.03 0.02 0.02 0.02 0.03 0.03 0.04 0.04 0.03 0.03 0.02 0.02 0.03 0.04
0.02 0.02 0.02 0.03 0.04 0.03 0.03 0.04 0.05 0.04 0.03 0.02 0.02 0.02 0.02 0.02 0.02 0.02 0.02 0.03 0.03 0.03 0.03 0.03 0.03 0.03 0.02 0.02 0.02 0.03 0.03 0.02 0.02 0.01 0.01 0.01 0.02 0.04
0.03 0.02 0.02 0.03 0.03 0.02 0.03 0.03 0.04 0.05 0.04 0.03 0.03 0.03 0.03 0.03 0.03 0.04 0.04 0.03 0.02 0.03 0.03 0.03 0.03 0.02 0.02 0.02 0.02 0.02 0.02 0.02 0.01 0.01 0.01 0.01 0.01 0.02
0.03 0.02 0.02 0.03 0.03 0.03 0.02 0.02 0.03 0.04 0.04 0.03 0.02 0.03 0.02 0.02 0.03 0.06 0.10 0.10 0.06 0.04 0.04 0.03 0.03 0.03 0.02 0.02 0.02 0.02 0.02 0.02 0.01 0.01 0.01 0.01 0.01 0.01
0.02 0.03 0.03 0.03 0.03 0.03 0.03 0.02 0.04 0.05 0.05 0.03 0.03 0.03 0.04 0.05 0.05 0.07 0.09 0.09 0.07 0.04 0.02 0.02 0.03 0.03 0.03 0.02 0.02 0.02 0.02 0.03 0.03 0.02 0.01 0.01 0.00 0.00
0.03 0.04 0.03 0.03 0.04 0.04 0.04 0.05 0.05 0.04 0.04 0.04 0.02 0.03 0.03 0.06 0.06 0.06 0.06 0.05 0.03 0.02 0.01 0.01 0.01 0.01 0.02 0.02 0.02 0.02 0.02 0.03 0.03 0.03 0.02 0.01 0.01 0.01
0.04 0.04 0.03 0.03 0.03 0.04 0.05 0.05 0.05 0.05 0.05 0.04 0.04 0.04 0.03 0.05 0.06 0.05 0.04 0.04 0.03 0.02 0.02 0.01 0.01 0.01 0.02 0.02 0.02 0.02 0.03 0.03 0.03 0.03 0.03 0.02 0.02 0.01
0.04 0.05 0.05 0.04 0.04 0.04 0.04 0.05 0.05 0.04 0.04 0.05 0.05 0.04 0.05 0.05 0.06 0.05 0.04 0.04 0.04 0.04 0.04 0.03 0.03 0.02 0.02 0.02 0.02 0.01 0.02 0.03 0.03 0.03 0.02 0.02 0.02 0.02
0.04 0.04 0.03 0.04 0.04 0.05 0.04 0.04 0.03 0.03 0.04 0.04 0.04 0.05 0.06 0.07 0.06 0.06 0.06 0.06 0.06 0.05 0.05 0.05 0.04 0.03 0.03 0.02 0.02 0.01 0.01 0.02 0.02 0.03 0.02 0.02 0.02 0.03
0.01 0.02 0.02 0.03 0.04 0.05 0.04 0.04 0.03 0.03 0.03 0.03 0.04 0.05 0.06 0.06 0.06 0.07 0.07 0.09 0.08 0.07 0.07 0.06 0.05 0.05 0.03 0.03 0.02 0.02 0.02 0.02 0.01 0.01 0.01 0.01 0.02 0.03
0.03 0.02 0.02 0.02 0.02 0.02 0.03 0.03 0.04 0.04 0.05 0.05 0.04 0.05 0.05 0.06 0.08 0.09 0.10 0.11 0.12 0.11 0.10 0.09 0.07 0.06 0.05 0.03 0.03 0.02 0.02 0.02 0.02 0.02 0.02 0.01 0.02 0.03
0.03 0.02 0.02 0.02 0.02 0.02 0.03 0.03 0.03 0.03 0.03 0.03 0.03 0.03 0.03 0.05 0.06 0.06 0.08 0.10 0.10 0.09 0.08 0.08 0.07 0.07 0.07 0.06 0.05 0.04 0.04 0.03 0.02 0.02 0.02 0.02 0.03 0.03
0.03 0.03 0.03 0.02 0.02 0.01 0.01 0.01 0.01 0.01 0.01 0.01 0.02 0.02 0.03 0.03 0.03 0.03 0.03 0.05 0.07 0.08 0.09 0.08 0.07 0.08 0.08 0.09 0.07 0.07 0.05 0.05 0.04 0.03 0.02 0.02 0.03 0.04
0.03 0.03 0.03 0.02 0.02 0.01 0.01 0.01 0.01 0.01 0.01 0.01 0.01 0.02 0.02 0.02 0.02 0.03 0.03 0.04 0.04 0.05 0.06 0.07 0.06 0.07 0.09 0.09 0.08 0.07 0.07 0.05 0.04 0.03 0.02 0.02 0.02 0.02
0.02 0.02 0.02 0.02 0.02 0.02 0.02 0.01 0.01 0.01 0.01 0.01 0.01 0.02 0.02 0.01 0.02 0.02 0.03 0.04 0.04 0.03 0.04 0.06 0.08 0.09 0.08 0.08 0.08 0.07 0.06 0.04 0.03 0.03 0.02 0.02 0.02 0.02
0.04 0.03 0.03 0.03 0.03 0.03 0.03 0.03 0.03 0.03 0.03 0.03 0.02 0.02 0.02 0.02 0.02 0.02 0.03 0.04 0.04 0.03 0.03 0.04 0.06 0.08 0.09 0.09 0.09 0.07 0.06 0.04 0.03 0.03 0.03 0.03 0.02 0.02
0.06 0.05 0.04 0.04 0.04 0.05 0.05 0.05 0.05 0.05 0.05 0.05 0.04 0.03 0.03 0.03 0.03 0.03 0.03 0.04 0.04 0.03 0.03 0.04 0.05 0.06 0.06 0.06 0.06 0.05 0.05 0.04 0.04 0.04 0.04 0.04 0.03 0.02
0.07 0.06 0.06 0.07 0.07 0.08 0.08 0.08 0.07 0.06 0.07 0.06 0.05 0.05 0.04 0.04 0.04 0.04 0.05 0.05 0.05 0.05 0.05 0.04 0.05 0.05 0.05 0.05 0.04 0.03 0.04 0.05 0.05 0.05 0.05 0.04 0.04 0.03
0.10 0.10 0.10 0.11 0.12 0.12 0.10 0.09 0.07 0.06 0.07 0.06 0.05 0.04 0.04 0.05 0.05 0.06 0.05 0.05 0.05 0.04 0.04 0.03 0.04 0.04 0.04 0.04 0.04 0.03 0.03 0.04 0.04 0.04 0.05 0.05 0.04 0.04
0.11 0.12 0.11 0.10 0.10 0.09 0.07 0.05 0.05 0.05 0.05 0.05 0.05 0.04 0.04 0.04 0.05 0.05 0.05 0.05 0.05 0.04 0.04 0.04 0.03 0.03 0.03 0.04 0.05 0.04 0.03 0.04 0.05 0.07 0.08 0.09 0.08 0.07
0.06 0.06 0.06 0.06 0.07 0.07 0.07 0.07 0.06 0.05 0.05 0.04 0.04 0.04 0.05 0.05 0.05 0.04 0.04 0.04 0.05 0.05 0.04 0.04 0.03 0.03 0.04 0.06 0.06 0.04 0.04 0.05 0.05 0.06 0.07 0.08 0.08 0.08
0.02 0.03 0.03 0.03 0.04 0.05 0.05 0.05 0.05 0.05 0.05 0.04 0.03 0.03 0.04 0.05 0.05 0.05 0.04 0.05 0.05 0.07 0.06 0.05 0.04 0.04 0.04 0.04 0.04 0.03 0.03 0.04 0.06 0.07 0.06 0.05 0.05 0.05
MSLP
1014.21 1014.37 1014.54 1014.70 1014.84 1014.93 1014.95 1014.89 1014.74 1014.51 1014.20 1013.85 1013.47 1013.11 1012.80 1012.58 1012.45 1012.43 1012.52 1012.69 1012.91 1013.14 1013.34 1013.46 1013.46 1013.34 1013.08 1012.71 1012.24 1011.73 1011.22 1010.77 1010.40 1010.15 1010.03 1010.04 1010.16 1010.37
1013.66 1013.84 1014.02 1014.20 1014.37 1014.50 1014.57 1014.56 1014.48 1014.31 1014.06 1013.75 1013.40 1013.04 1012.71 1012.44 1012.24 1012.14 1012.14 1012.23 1012.39 1012.58 1012.77 1012.91 1012.97 1012.93 1012.77 1012.49 1012.12 1011.70 1011.26 1010.86 1010.51 1010.27 1010.14 1010.12 1010.21 1010.38
1013.18 1013.38 1013.58 1013.78 1013.96 1014.10 1014.20 1014.23 1014.20 1014.08 1013.89 1013.63 1013.32 1012.99 1012.65 1012.34 1012.08 1011.90 1011.80 1011.80 1011.87 1012.01 1012.17 1012.32 1012.43 1012.47 1012.42 1012.27 1012.03 1011.73 1011.39 1011.06 1010.76 1010.54 1010.40 1010.36 1010.41 1010.54
1012.80 1013.03 1013.24 1013.44 1013.62 1013.77 1013.88 1013.93 1013.92 1013.85 1013.72 1013.52 1013.26 1012.96 1012.63 1012.30 1012.00 1011.75 1011.56 1011.46 1011.44 1011.50 1011.62 1011.76 1011.90 1012.01 1012.06 1012.03 1011.91 1011.73 1011.50 1011.25 1011.02 1010.82 1010.68 1010.62 1010.63 1010.71
1012.54 1012.79 1013.02 1013.21 1013.38 1013.51 1013.60 1013.66 1013.67 1013.64 1013.55 1013.41 1013.21 1012.96 1012.67 1012.35 1012.03 1011.72 1011.46 1011.27 1011.16 1011.14 1011.19 1011.30 1011.44 1011.59 1011.70 1011.76 1011.75 1011.67 1011.54 1011.36 1011.17 1011.00 1010.86 1010.78 1010.76 1010.80
1012.39 1012.66 1012.89 1013.08 1013.22 1013.32 1013.39 1013.43 1013.44 1013.43 1013.38 1013.30 1013.17 1012.99 1012.75 1012.47 1012.15 1011.83 1011.52 1011.25 1011.06 1010.95 1010.92 1010.98 1011.09 1011.23 1011.37 1011.47 1011.53 1011.52 1011.46 1011.34 1011.19 1011.03 1010.89 1010.79 1010.74 1010.74
1012.33 1012.62 1012.85 1013.02 1013.13 1013.19 1013.22 1013.23 1013.23 1013.23 1013.22 1013.19 1013.13 1013.02 1012.85 1012.62 1012.34 1012.02 1011.69 1011.38 1011.12 1010.93 1010.82 1010.80 1010.86 1010.96 1011.08 1011.20 1011.28 1011.30 1011.27 1011.18 1011.05 1010.91 1010.77 1010.65 1010.58 1010.55
1012.35 1012.64 1012.86 1013.01 1013.08 1013.10 1013.08 1013.06 1013.04 1013.04 1013.05 1013.06 1013.06 1013.03 1012.93 1012.77 1012.54 1012.25 1011.93 1011.59 1011.29 1011.03 1010.86 1010.76 1010.75 1010.79 1010.87 1010.96 1011.03 1011.05 1011.03 1010.95 1010.83 1010.70 1010.55 1010.43 1010.35 1010.30
1012.40 1012.70 1012.91 1013.03 1013.07 1013.04 1012.98 1012.92 1012.87 1012.86 1012.87 1012.91 1012.96 1012.98 1012.96 1012.87 1012.70 1012.46 1012.16 1011.84 1011.51 1011.22 1010.98 1010.82 1010.74 1010.72 1010.74 1010.79 1010.83 1010.83 1010.80 1010.73 1010.62 1010.48 1010.35 1010.23 1010.13 1010.07
1012.47 1012.76 1012.95 1013.05 1013.06 1013.00 1012.91 1012.81 1012.73 1012.69 1012.70 1012.75 1012.82 1012.89 1012.91 1012.88 1012.78 1012.59 1012.34 1012.03 1011.72 1011.41 1011.15 1010.95 1010.81 1010.74 1010.71 1010.72 1010.72 1010.71 1010.67 1010.59 1010.49 1010.36 1010.24 1010.12 1010.02 1009.95
1012.51 1012.79 1012.97 1013.06 1013.05 1012.96 1012.84 1012.71 1012.60 1012.53 1012.52 1012.57 1012.64 1012.73 1012.79 1012.80 1012.74 1012.61 1012.40 1012.15 1011.85 1011.56 1011.30 1011.09 1010.93 1010.83 1010.77 1010.75 1010.73 1010.71 1010.67 1010.60 1010.51 1010.39 1010.28 1010.17 1010.07 1010.00
1012.51 1012.77 1012.94 1013.01 1012.99 1012.90 1012.76 1012.60 1012.47 1012.38 1012.35 1012.37 1012.43 1012.51 1012.59 1012.62 1012.60 1012.52 1012.36 1012.15 1011.91 1011.66 1011.42 1011.22 1011.06 1010.96 1010.90 1010.87 1010.85 1010.83 1010.79 1010.74 1010.66 1010.57 1010.47 1010.37 1010.28 1010.20
1012.44 1012.67 1012.83 1012.89 1012.86 1012.76 1012.61 1012.45 1012.31 1012.20 1012.14 1012.14 1012.18 1012.25 1012.32 1012.37 1012.37 1012.32 1012.22 1012.06 1011.87 1011.67 1011.48 1011.32 1011.19 1011.10 1011.05 1011.03 1011.03 1011.02 1011.01 1010.97 1010.92 1010.85 1010.77 1010.68 1010.60 1010.52
1012.27 1012.47 1012.60 1012.64 1012.61 1012.52 1012.38 1012.22 1012.07 1011.96 1011.88 1011.86 1011.88 1011.94 1012.00 1012.06 1012.08 1012.06 1012.00 1011.90 1011.77 1011.62 1011.48 1011.36 1011.27 1011.22 1011.19 1011.20 1011.21 1011.23 1011.23 1011.23 1011.20 1011.16 1011.10 1011.03 1010.96 1010.89
1012.01 1012.15 1012.24 1012.27 1012.23 1012.14 1012.01 1011.87 1011.74 1011.63 1011.55 1011.53 1011.54 1011.59 1011.65 1011.71 1011.76 1011.77 1011.75 1011.69 1011.61 1011.52 1011.43 1011.36 1011.30 1011.28 1011.28 1011.30 1011.34 1011.37 1011.41 1011.43 1011.43 1011.42 1011.39 1011.35 1011.30 1011.25
1011.65 1011.73 1011.77 1011.76 1011.72 1011.63 1011.52 1011.40 1011.29 1011.20 1011.15 1011.13 1011.15 1011.21 1011.28 1011.36 1011.42 1011.47 1011.49 1011.48 1011.44 1011.40 1011.35 1011.30 1011.28 1011.27 1011.29 1011.32 1011.37 1011.43 1011.48 1011.52 1011.56 1011.58 1011.59 1011.59 1011.58 1011.57
1011.22 1011.23 1011.21 1011.17 1011.10 1011.02 1010.93 1010.83 1010.75 1010.70 1010.67 1010.69 1010.74 1010.82 1010.91 1011.02 1011.11 1011.19 1011.25 1011.28 1011.28 1011.27 1011.24 1011.22 1011.20 1011.20 1011.22 1011.25 1011.30 1011.37 1011.44 1011.51 1011.58 1011.64 1011.70 1011.75 1011.80 1011.84
1010.75 1010.69 1010.61 1010.54 1010.45 1010.37 1010.29 1010.22 1010.17 1010.16 1010.18 1010.23 1010.32 1010.44 1010.57 1010.71 1010.84 1010.96 1011.05 1011.11 1011.15 1011.15 1011.14 1011.12 1011.10 1011.09 1011.09 1011.11 1011.16 1011.22 1011.30 1011.40 1011.51 1011.62 1011.74 1011.85 1011.97 1012.08
1010.29 1010.17 1010.05 1009.94 1009.83 1009.75 1009.68 1009.63 1009.62 1009.64 1009.71 1009.80 1009.94 1010.10 1010.27 1010.45 1010.62 1010.78 1010.90 1010.99 1011.04 1011.07 1011.06 1011.03 1011.00 1010.97 1010.95 1010.95 1010.98 1011.04 1011.14 1011.26 1011.40 1011.57 1011.75 1011.93 1012.12 1012.31
1009.87 1009.71 1009.55 1009.42 1009.30 1009.22 1009.16 1009.14 1009.15 1009.21 1009.31 1009.44 1009.62 1009.81 1010.03 1010.24 1010.45 1010.64 1010.79 1010.91 1010.98 1011.01 1011.00 1010.97 1010.91 1010.86 1010.82 1010.80 1010.82 1010.88 1010.98 1011.12 1011.30 1011.52 1011.76 1012.01 1012.27 1012.53
1009.50 1009.32 1009.15 1009.01 1008.89 1008.81 1008.77 1008.76 1008.80 1008.89 1009.01 1009.17 1009.37 1009.60 1009.84 1010.08 1010.32 1010.53 1010.71 1010.84 1010.93 1010.97 1010.96 1010.92 1010.86 1010.79 1010.73 1010.70 1010.70 1010.75 1010.86 1011.02 1011.23 1011.48 1011.76 1012.07 1012.39 1012.71
1009.17 1009.00 1008.84 1008.71 1008.60 1008.54 1008.51 1008.52 1008.58 1008.67 1008.81 1008.99 1009.19 1009.43 1009.68 1009.94 1010.19 1010.41 1010.61 1010.76 1010.87 1010.92 1010.93 1010.89 1010.83 1010.76 1010.68 1010.64 1010.63 1010.67 1010.77 1010.93 1011.15 1011.42 1011.74 1012.07 1012.42 1012.77
1008.86 1008.72 1008.58 1008.48 1008.40 1008.36 1008.35 1008.38 1008.45 1008.55 1008.68 1008.85 1009.05 1009.28 1009.52 1009.77 1010.02 1010.26 1010.47 1010.64 1010.76 1010.84 1010.86 1010.84 1010.79 1010.71 1010.64 1010.58 1010.56 1010.59 1010.67 1010.82 1011.03 1011.30 1011.61 1011.95 1012.30 1012.64
Thickness
5741 5739 5738 5739 5739 5738 5736 5734 5729 5726 5729 5734 5736 5738 5735 5734 5732 5730 5730 5727 5725 5724 5722 5720 5718 5716 5714 5712 5710 5708 5706 5704 5703 5701 5700 5698 5696 5694
5738 5736 5736 5738 5737 5735 5734 5733 5731 5728 5727 5733 5733 5735 5732 5732 5729 5728 5727 5725 5723 5721 5720 5718 5716 5713 5712 5710 5707 5705 5703 5701 5699 5697 5696 5694 5692 5690
5735 5734 5732 5732 5732 5733 5732 5730 5728 5727 5724 5729 5731 5731 5726 5725 5725 5723 5723 5722 5722 5719 5717 5714 5712 5710 5708 5706 5704 5701 5699 5697 5695 5693 5691 5690 5688 5686
5731 5730 5729 5730 5727 5728 5727 5727 5726 5725 5722 5721 5724 5724 5722 5721 5720 5718 5720 5720 5719 5716 5713 5711 5708 5706 5704 5702 5700 5697 5695 5692 5690 5688 5687 5685 5683 5681
5728 5726 5726 5725 5723 5725 5723 5724 5724 5724 5721 5719 5719 5719 5718 5718 5715 5714 5714 5713 5713 5713 5709 5706 5704 5701 5699 5697 5695 5693 5690 5688 5686 5684 5682 5680 5678 5676
5724 5723 5723 5721 5720 5720 5719 5719 5719 5718 5717 5716 5715 5714 5713 5713 5710 5709 5708 5708 5707 5708 5706 5703 5700 5697 5694 5692 5690 5688 5685 5683 5680 5678 5676 5674 5672 5670
5721 5720 5719 5717 5716 5715 5716 5715 5714 5713 5713 5712 5710 5709 5708 5705 5705 5705 5703 5702 5702 5702 5700 5699 5696 5694 5691 5687 5685 5682 5680 5677 5675 5673 5671 5669 5667 5665
5716 5716 5716 5713 5711 5708 5708 5707 5706 5705 5706 5705 5705 5704 5702 5702 5700 5699 5697 5694 5692 5696 5693 5692 5692 5690 5688 5686 5682 5678 5675 5672 5670 5667 5665 5663 5661 5659
5712 5711 5712 5713 5708 5707 5704 5701 5700 5698 5697 5698 5699 5698 5697 5697 5693 5691 5690 5689 5688 5690 5686 5684 5685 5683 5683 5681 5677 5673 5670 5667 5664 5661 5659 5657 5655 5653
5707 5706 5705 5705 5704 5700 5700 5699 5698 5697 5695 5693 5693 5693 5693 5690 5688 5686 5684 5682 5682 5683 5681 5677 5678 5677 5677 5674 5670 5667 5663 5661 5658 5655 5653 5651 5649 5647
5702 5701 5700 5699 5695 5692 5692 5692 5691 5691 5689 5687 5685 5684 5682 5681 5680 5678 5676 5675 5674 5675 5675 5671 5670 5669 5668 5667 5664 5660 5657 5654 5652 5649 5646 5644 5642 5640
5695 5695 5691 5690 5687 5684 5685 5684 5683 5683 5682 5681 5678 5676 5675 5674 5672 5671 5671 5669 5668 5666 5668 5664 5662 5660 5658 5660 5658 5654 5650 5647 5645 5643 5640 5638 5635 5633
5689 5689 5688 5682 5679 5676 5675 5677 5675 5674 5675 5674 5673 5672 5671 5669 5668 5666 5665 5663 5662 5661 5662 5659 5656 5654 5651 5650 5650 5649 5646 5644 5640 5637 5634 5631 5628 5626
5680 5681 5680 5674 5671 5669 5668 5668 5666 5665 5668 5668 5667 5665 5663 5663 5662 5660 5658 5656 5655 5655 5654 5652 5650 5647 5644 5643 5642 5642 5640 5638 5636 5634 5631 5626 5622 5620
5672 5669 5667 5665 5663 5662 5660 5659 5658 5660 5661 5660 5659 5658 5657 5656 5654 5652 5650 5648 5647 5646 5645 5643 5642 5641 5640 5638 5637 5635 5633 5632 5630 5628 5626 5623 5620 5617
5661 5659 5657 5656 5656 5654 5654 5653 5653 5653 5653 5652 5652 5650 5649 5647 5646 5645 5644 5642 5640 5640 5639 5636 5634 5633 5632 5631 5630 5629 5627 5624 5623 5621 5620 5619 5617 5615
5651 5652 5652 5651 5651 5650 5648 5646 5645 5644 5643 5642 5642 5641 5640 5639 5638 5637 5635 5634 5632 5632 5632 5630 5628 5626 5625 5623 5622 5622 5620 5618 5616 5614 5612 5612 5612 5611
5641 5644 5644 5642 5641 5640 5639 5637 5635 5634 5633 5632 5632 5631 5630 5630 5629 5629 5627 5626 5625 5625 5625 5624 5621 5617 5616 5616 5614 5614 5614 5612 5611 5608 5607 5605 5606 5606
5634 5636 5634 5633 5631 5630 5629 5627 5626 5624 5623 5622 5622 5621 5621 5620 5620 5620 5619 5618 5617 5617 5617 5616 5613 5611 5609 5609 5609 5606 5607 5606 5604 5602 5602 5601 5601 5601
5628 5627 5625 5623 5621 5620 5619 5617 5616 5615 5613 5612 5612 5612 5612 5612 5611 5612 5612 5610 5609 5608 5608 5607 5606 5605 5604 5604 5603 5601 5598 5599 5598 5596 5596 5595 5594 5592
5620 5618 5616 5613 5612 5610 5609 5608 5606 5605 5604 5603 5603 5603 5603 5602 5602 5602 5603 5600 5598 5599 5599 5598 5598 5595 5595 5593 5593 5594 5594 5590 5590 5589 5588 5587 5586 5586
5608 5607 5605 5603 5602 5600 5599 5597 5596 5596 5595 5594 5595 5595 5594 5594 5593 5592 5592 5591 5591 5591 5590 5590 5588 5588 5587 5586 5586 5586 5586 5584 5582 5581 5580 5580 5580 5581
5596 5595 5593 5591 5590 5588 5588 5587 5586 5585 5584 5584 5584 5584 5584 5584 5584 5583 5582 5581 5580 5580 5580 5580 5579 5579 5580 5579 5579 5579 5578 5578 5578 5576 5575 5573 5572 5572